Location: Songkhla
(7.2000°N, 100.6000°E)
Time: 18:30:36
(UTC+07:00)

ISS - Visible Passes

Search period start: 20 June 2018 00:00
Search period end: 30 June 2018 00:00
Orbit: 402 x 406 km, 51.6° (Epoch: 20 June)

Date Brightness Start Highest point End Pass type
(mag) Time Alt. Az. Time Alt. Az. Time Alt. Az.
23 Jun -1.2 05:06:59 10° SSE 05:09:07 16° SE 05:11:14 10° E visible
25 Jun -3.6 04:59:11 26° SSW 05:00:48 65° SE 05:04:02 10° NE visible
26 Jun -1.3 04:09:29 19° E 04:09:29 19° E 04:11:09 10° ENE visible
27 Jun -2.6 04:52:23 28° WNW 04:52:29 28° NW 04:55:20 10° N visible
28 Jun -1.0 04:02:30 17° NNE 04:02:30 17° NNE 04:03:25 10° NE visible
